Regional Weather Roundup
Issued by NWS Memphis, TN

Home | Current Version | Previous Version | Text Only | Print | Product List | Glossary On
Versions: 1 2 3 4 5 6 7 8 9 10 11 12 13 14 15 16 17 18 19 20 21 22 23 24 25 26 27 28 29 30 31 32 33 34 35 36 37 38 39 40 41 42 43 44 45 46 47 48 49 50
000
ASUS44 KMEG 300310
RWRMEG
MEMPHIS CWA HOURLY WEATHER ROUNDUP
NATIONAL WEATHER SERVICE MEMPHIS TN
1000 PM CDT FRI AUG 29 2014

...WEST TENNESSEE...

CITY           SKY/WX    TMP DP  RH WIND       PRES   REMARKS
MEMPHIS INTL   MOCLDY    82  69  64 CALM      29.98R
NWS MEMPHIS      N/A     79 N/A N/A MISG        N/A
JACKSON        MOCLDY    79  65  62 CALM      30.00R
LEXINGTON      CLEAR     70  66  88 CALM      30.01R
SAVANNAH       CLEAR     72  72 100 CALM      30.01R
DYERSBURG      CLOUDY    79  63  57 CALM      30.00R
UNION CITY     CLEAR     75  70  83 S5        29.98R
PARIS          CLEAR     73  64  73 CALM      30.01R
HUNTINGDON     MOCLDY    73  67  81 CALM      30.01R


...EASTERN ARKANSAS...

CITY           SKY/WX    TMP DP  RH WIND       PRES   REMARKS
JONESBORO      CLOUDY    74  72  93 E3        29.98R
WEST MEMPHIS     N/A     77  74  90 CALM      29.96R
BATESVILLE     CLOUDY    72  72 100 CALM      29.97F
NEWPORT        MOCLDY    75  72  91 CALM      29.99R
WALNUT RIDGE   CLOUDY    73  70  88 SW8       29.99R
BLYTHEVILLE    CLOUDY    75  73  93 NW12      30.00R
SEARCY         CLOUDY    73  72  97 SW5       29.97F
STUTTGART      MOCLDY    79  73  83 E3        29.96R
PINE BLUFF     MOCLDY    76  73  91 CALM      29.94S FOG
MONTICELLO     MOCLDY    79  74  84 CALM      29.94R


...NORTH MISSISSIPPI...

CITY           SKY/WX    TMP DP  RH WIND       PRES   REMARKS
TUPELO         PTCLDY    80  65  59 S5        29.98R
OLIVE BRANCH   CLEAR     81  72  74 CALM      29.99R
CLARKSDALE     MOCLDY    75  75 100 CALM      29.96S
CORINTH          N/A     73  68  83 CALM      29.99R
GRENADA        CLOUDY    73  70  88 CALM      29.98R
GREENWOOD      CLOUDY    76  73  91 CALM      29.96R
COLUMBUS       PTCLDY    76  67  73 SE3       29.99R
STARKVILLE     FAIR      73  68  83 CALM      29.99R
GOLDEN TRIANGL PTCLDY    79  64  61 S5        30.00R


...SOUTHEAST MISSOURI...

CITY           SKY/WX    TMP DP  RH WIND       PRES   REMARKS
WEST PLAINS    CLOUDY    73  68  84 S6        29.99R
POPLAR BLUFF   RAIN      72  68  87 SE8       30.00S
CAPE GIRARDEAU CLOUDY    74  68  81 SW17G25   30.00R


...NORTHWEST ALABAMA...

CITY           SKY/WX    TMP DP  RH WIND       PRES   REMARKS
MUSCLE SHOALS  CLEAR     73  67  81 CALM      30.03R


...MIDDLE TENNESSEE...

CITY           SKY/WX    TMP DP  RH WIND       PRES   REMARKS
NASHVILLE      CLEAR     77  63  61 CALM      30.04R
CLARKSVILLE    CLEAR     75  65  70 CALM      30.01R
DICKSON        CLEAR     72  63  73 SE3       30.04R
COLUMBIA         N/A     73  72  94 CALM      30.03R
LEWISBURG      CLEAR     70  66  86 CALM      30.04R


...WESTERN KENTUCKY...

CITY           SKY/WX    TMP DP  RH WIND       PRES   REMARKS
PADUCAH        MOCLDY    82  67  60 S7        29.97R
FORT CAMPBELL  CLEAR     80  64  57 S5        30.02R


...CENTRAL ARKANSAS...

CITY           SKY/WX    TMP DP  RH WIND       PRES   REMARKS
LITTLE ROCK    CLOUDY    76  69  79 CALM      29.96R


SKY/WX REPORTED AS FAIR MEANS FEW OR NO CLOUDS BELOW
12 THOUSAND FEET.




USA.gov is the U.S. government's official web portal to all federal, state and local government web resources and services.